EW4366 Weather Reports


time (UTC)temp
C
wind
direction
speed
KPH
gust
KPH
rain 1hr
cm
rain 24hr
cm
rain mn
cm
humidity
%
barometer
mb
20260508102037 1 0.0 0.0 0.00 0.00 0.00 88 1016.4
20260508101037 1 0.0 0.0 0.00 0.00 0.00 88 1016.3
20260508100036 2 0.0 0.0 0.00 0.00 0.00 88 1016.1
20260508095036 2 0.0 0.0 0.00 0.00 0.00 88 1016.0
20260508094037 2 0.0 0.0 0.00 0.00 0.00 88 1016.1
20260508093036 2 0.0 0.0 0.00 0.00 0.00 88 1015.9
20260508092016 2 0.0 0.0 0.00 0.00 0.00 88 1015.9
20260508091016 2 0.0 0.0 0.00 0.00 0.00 89 1015.8
20260508090016 2 0.0 0.0 0.00 0.00 0.00 89 1015.6
20260508085016 2 0.0 0.0 0.00 0.00 0.00 89 1015.7
20260508084016 2 0.0 0.0 0.00 0.00 0.00 89 1015.5
20260508083016 2 0.0 0.0 0.00 0.00 0.00 89 1015.6
20260508082016 3 0.0 0.0 0.00 0.00 0.00 89 1015.4
20260508081016 3 0.0 0.0 0.00 0.00 0.00 89 1015.3
20260508080016 3 0.0 0.0 0.00 0.00 0.00 88 1015.2
20260508075016 3 0.0 0.0 0.00 0.00 0.00 88 1015.4
20260508074016 3 0.0 0.0 0.00 0.00 0.00 89 1015.2
20260508073016 3 0.0 0.0 0.00 0.00 0.00 89 1015.1
20260508072016 3 0.0 0.0 0.00 0.00 0.00 88 1014.9
20260508071016 4 0.0 0.0 0.00 0.00 0.00 89 1014.9
20260508070016 4 0.0 0.0 0.00 0.00 0.00 89 1014.9
20260508065016 4 0.0 0.0 0.00 0.00 0.00 88 1014.9
20260508064036 4 0.0 0.0 0.00 0.00 0.00 89 1014.8
20260508063016 5 0.0 0.0 0.00 0.00 0.00 89 1014.7
20260508062016 5 0.0 0.0 0.00 0.00 0.00 89 1015.0
20260508061016 5 0.0 0.0 0.00 0.00 0.00 89 1014.9
20260508060016 5 0.0 0.0 0.00 0.00 0.00 89 1014.9
20260508055016 5 0.0 0.0 0.00 0.00 0.00 89 1015.1
20260508054036 5 0.0 0.0 0.00 0.00 0.00 88 1014.9
20260508053016 5 0.0 0.0 0.00 0.00 0.00 89 1014.6
20260508052016 6 0.0 0.0 0.00 0.00 0.00 88 1014.7
20260508051016 6 0.0 0.0 0.00 0.00 0.00 89 1014.4
20260508050016 6 0.0 0.0 0.00 0.00 0.00 88 1014.2
20260508045016 6 0.0 1.6 0.00 0.00 0.00 88 1014.0
20260508044016 6 0.0 0.0 0.00 0.00 0.00 88 1013.9
20260508043016 6 0.0 0.0 0.00 0.00 0.00 88 1013.9
20260508042016 7 0.0 0.0 0.00 0.00 0.00 88 1013.9
20260508041036 7 0.0 0.0 0.00 0.00 0.00 87 1013.7
20260508040016 7 0.0 0.0 0.00 0.00 0.00 87 1013.8
20260508035016 7 0.0 0.0 0.00 0.00 0.00 87 1013.6
20260508034036 7 0.0 0.0 0.00 0.00 0.00 86 1013.4
20260508033036 8 0.0 0.0 0.00 0.00 0.00 86 1013.4
20260508032016 8 0.0 0.0 0.00 0.00 0.00 85 1013.4
20260508031017 8 0.0 0.0 0.00 0.00 0.00 84 1013.4
20260508030016 9 0.0 0.0 0.00 0.00 0.00 83 1013.3
20260508025016 9 0.0 0.0 0.00 0.00 0.00 82 1013.1
20260508024016 10 0.0 3.2 0.00 0.00 0.00 82 1013.0
20260508023016 10 0.0 0.0 0.00 0.00 0.00 81 1012.9
20260508022016 10 0.0 0.0 0.00 0.00 0.00 79 1012.8
20260508021016 11 0.0 0.0 0.00 0.00 0.00 77 1012.5
20260508020016 11 0.0 0.0 0.00 0.00 0.00 75 1012.4
20260508015016 11 0.0 0.0 0.00 0.00 0.00 71 1012.4
20260508014036 11 0.0 0.0 0.00 0.00 0.00 75 1012.2
20260508013016 11 0.0 1.6 0.00 0.00 0.00 74 1012.1
20260508012016 11 270 1.6 4.8 0.00 0.00 0.00 73 1011.8
20260508011016 11 225 1.6 4.8 0.00 0.00 0.00 76 1011.7
20260508010036 11 0.0 0.0 0.00 0.00 0.00 74 1011.7
20260508005016 12 0.0 0.0 0.00 0.00 0.00 73 1011.5
20260508004016 12 225 1.6 4.8 0.00 0.00 0.00 71 1011.5
20260508003016 12 0.0 0.0 0.00 0.03 0.00 71 1011.6
20260508002015 12 0.0 0.0 0.00 0.03 0.00 68 1011.4
20260508001016 13 0.0 0.0 0.00 0.03 0.00 66 1011.5
20260508000015 13 0.0 0.0 0.00 0.03 0.00 62 1011.3
20260507235016 13 0.0 0.0 0.00 0.03 0.00 61 1011.3
20260507234036 14 0.0 0.0 0.00 0.03 0.00 62 1011.3
20260507233016 14 0.0 3.2 0.00 0.03 0.00 61 1011.2
20260507232015 14 225 3.2 11.3 0.00 0.03 0.00 59 1011.2
20260507231015 15 0.0 1.6 0.00 0.03 0.00 59 1011.2
20260507230016 14 203 1.6 4.8 0.00 0.03 0.00 61 1011.2
20260507225036 14 203 3.2 11.3 0.00 0.03 0.00 60 1011.1
20260507224015 14 158 1.6 3.2 0.00 0.03 0.00 60 1011.0
20260507223015 14 0.0 1.6 0.00 0.03 0.00 60 1010.9
20260507222036 15 0.0 0.0 0.00 0.03 0.00 61 1010.7
20260507221016 15 0.0 1.6 0.00 0.03 0.00 60 1010.8
20260507220036 15 0.0 1.6 0.00 0.03 0.00 62 1010.6
20260507215015 15 0.0 1.6 0.00 0.03 0.00 60 1010.6
20260507214015 15 0.0 0.0 0.00 0.03 0.00 60 1010.7
20260507213015 15 270 1.6 3.2 0.00 0.03 0.00 59 1010.5
20260507212016 16 0 3.2 8.0 0.00 0.03 0.00 59 1010.5
20260507211015 15 293 3.2 6.4 0.00 0.03 0.00 61 1010.2
20260507210015 16 225 1.6 4.8 0.00 0.03 0.00 59 1010.1
20260507205017 16 225 1.6 6.4 0.00 0.03 0.00 60 1010.0
20260507204017 16 270 1.6 3.2 0.00 0.03 0.00 63 1010.3
20260507203037 15 270 4.8 9.7 0.00 0.03 0.00 65 1010.4
20260507202037 15 0.0 3.2 0.00 0.03 0.00 66 1010.3
20260507201018 15 270 1.6 6.4 0.00 0.03 0.00 64 1010.1
20260507200017 15 0.0 3.2 0.00 0.03 0.00 64 1010.1
20260507195017 15 0.0 3.2 0.00 0.03 0.00 64 1010.2
20260507194017 15 248 3.2 12.9 0.00 0.03 0.00 65 1010.2
20260507193017 14 0.0 1.6 0.00 0.03 0.00 66 1010.3
20260507192018 14 270 1.6 4.8 0.00 0.03 0.00 67 1010.5
20260507191017 14 0.0 1.6 0.00 0.03 0.00 69 1010.8
20260507190017 14 0.0 0.0 0.00 0.03 0.00 71 1010.8
20260507185017 14 0.0 0.0 0.00 0.03 0.00 71 1010.8
20260507184036 14 203 1.6 3.2 0.00 0.03 0.00 73 1010.8
20260507183017 13 0.0 0.0 0.00 0.03 0.00 74 1010.8
20260507182017 13 0.0 0.0 0.00 0.03 0.00 75 1011.0
20260507181017 13 0.0 1.6 0.00 0.03 0.00 75 1011.0
20260507180017 13 0.0 0.0 0.00 0.03 0.00 76 1010.9
20260507175017 13 0.0 0.0 0.00 0.03 0.00 77 1011.0
20260507174017 13 0.0 0.0 0.00 0.03 0.00 75 1011.1
20260507173017 13 158 1.6 4.8 0.00 0.03 0.00 73 1011.1
20260507172017 13 0.0 0.0 0.00 0.03 0.00 77 1011.3
20260507171037 13 0.0 0.0 0.00 0.03 0.00 75 1011.2
20260507170017 12 0.0 0.0 0.00 0.03 0.00 76 1011.5
20260507165017 12 0.0 0.0 0.00 0.03 0.00 78 1011.5
20260507164017 12 0.0 0.0 0.00 0.03 0.00 76 1011.8
20260507163017 12 0.0 1.6 0.00 0.03 0.00 78 1011.6
20260507162017 12 0.0 0.0 0.00 0.03 0.00 78 1011.6
20260507161017 11 0.0 0.0 0.00 0.03 0.00 76 1011.8
20260507160017 11 0.0 0.0 0.00 0.03 0.00 78 1011.8
20260507155017 11 0.0 0.0 0.00 0.03 0.00 77 1011.9
20260507154017 11 0.0 0.0 0.00 0.03 0.00 79 1011.8
20260507153017 11 0.0 0.0 0.00 0.03 0.00 82 1011.8
20260507152037 10 0.0 0.0 0.00 0.03 0.00 80 1011.9
20260507151017 10 0.0 0.0 0.00 0.03 0.00 81 1011.9
20260507150017 10 0.0 0.0 0.00 0.03 0.00 82 1011.9
20260507145017 10 0.0 1.6 0.00 0.03 0.00 84 1011.9
20260507144017 10 0.0 0.0 0.00 0.03 0.00 83 1012.1
20260507143017 10 0.0 0.0 0.00 0.03 0.00 82 1012.2
20260507142017 10 0.0 1.6 0.00 0.03 0.00 84 1012.2
20260507141017 10 0.0 1.6 0.00 0.03 0.00 82 1012.1
20260507140037 10 0.0 0.0 0.00 0.03 0.00 84 1012.0
20260507135037 10 0.0 0.0 0.00 0.03 0.00 85 1012.1
20260507134017 10 0.0 0.0 0.00 0.03 0.00 85 1012.1
20260507133017 10 0.0 0.0 0.00 0.03 0.00 85 1012.4
20260507132037 10 158 1.6 4.8 0.00 0.03 0.00 86 1012.4
20260507131017 10 0.0 0.0 0.00 0.03 0.00 86 1012.5
20260507130037 10 90 6.4 12.9 0.00 0.03 0.00 87 1012.4
20260507125016 10 0.0 1.6 0.00 0.03 0.00 87 1012.6
20260507124017 10 293 1.6 3.2 0.00 0.05 0.00 87 1012.7
20260507123017 10 0.0 0.0 0.00 0.05 0.00 87 1012.5
20260507122016 10 0.0 0.0 0.00 0.05 0.00 87 1012.5
20260507121038 10 0.0 0.0 0.00 0.05 0.00 87 1012.2
20260507120017 11 0.0 0.0 0.00 0.05 0.00 87 1012.1
20260507115017 11 293 1.6 4.8 0.00 0.05 0.00 87 1012.0
20260507114016 11 0.0 0.0 0.00 0.05 0.00 88 1012.2
20260507113016 11 0.0 3.2 0.00 0.05 0.00 88 1011.9
20260507112017 11 0.0 0.0 0.00 0.05 0.00 88 1012.0
20260507111017 11 0.0 1.6 0.00 0.05 0.00 88 1012.0
20260507110037 11 0.0 0.0 0.00 0.05 0.00 88 1011.7
20260507105036 11 0.0 0.0 0.00 0.05 0.00 88 1011.4
20260507104016 11 0.0 0.0 0.00 0.05 0.00 88 1011.7
20260507103037 11 0.0 0.0 0.00 0.05 0.00 88 1011.3